Home > Weather > Knoxville > Past weeks

Flag for USA Past Weather in Knoxville, Tennessee, USA — Yesterday and Last 2 Weeks

Now
88 °F

Scattered clouds.


Feels Like: 93 °F
Forecast: 73 / 94 °F
Wind: 5 mph from Northwest

Location: McGhee Tyson Airport

Current Time: Aug 25, 2016 at 9:45:35 PM

Latest Report: Aug 25, 2016 at 7:53 PM


Visibility: 10 mi

Pressure: 30.05 "Hg

Humidity: 55%

Dew Point: 70 °F

Location of KnoxvilleLocation

Past Weather in Knoxville — Graph

°F

Knoxville Temperature Yesterday

Maximum temperature yesterday: 89 °F (at 4:53 PM)
Minimum temperature yesterday: 70 °F (at 6:53 AM)
Average temperature yesterday: 80 °F

High & Low Weather Summary for the Past Weeks

 TemperatureHumidityPressure
High96 °F (Aug 16, 4:53 PM)97% (Aug 17, 4:53 AM)30.26 "Hg (Aug 17, 4:53 AM)
Low61 °F (Aug 23, 6:53 AM)35% (Aug 16, 5:53 PM)29.80 "Hg (Aug 20, 4:53 PM)
Average79 °F72%30.06 "Hg
* Reported Aug 10 7:53 PM — Aug 25 7:53 PM, Knoxville, Weather by CustomWeather, © 2016

Note: Actual official high and low records may vary slightly from our data, if they occured in-between our weather recording intervals... More about our weather records

Advertising

Knoxville Weather History for the Previous 24 Hours

Scroll right to see more
 ConditionsComfort  
Time TempWeatherWind HumidityBarometerVisibility
7:53 PM
Thu, Aug 25
88 °FScattered clouds.5 mph55%30.05 "Hg10 mi
6:53 PM90 °FScattered clouds.6 mph48%30.06 "Hg10 mi
5:53 PM93 °FScattered clouds.6 mph41%30.05 "Hg10 mi
4:53 PM93 °FScattered clouds.6 mph42%30.06 "Hg10 mi
3:53 PM92 °FScattered clouds.No wind46%30.08 "Hg10 mi
2:53 PM90 °FBroken clouds.5 mph50%30.10 "Hg10 mi
1:53 PM89 °FScattered clouds.5 mph53%30.12 "Hg10 mi
12:53 PM87 °FScattered clouds.7 mph55%30.14 "Hg10 mi
11:53 AM86 °FScattered clouds.10 mph57%30.15 "Hg10 mi
10:53 AM83 °FScattered clouds.10 mph61%30.16 "Hg10 mi
9:53 AM79 °FScattered clouds.7 mph74%30.17 "Hg10 mi
8:53 AM77 °FScattered clouds.3 mph79%30.17 "Hg10 mi
7:53 AM73 °FPassing clouds.3 mph90%30.16 "Hg10 mi
6:53 AM72 °FPassing clouds.3 mph91%30.16 "Hg10 mi
5:53 AM73 °FPassing clouds.3 mph88%30.15 "Hg10 mi
4:53 AM72 °FPassing clouds.No wind91%30.14 "Hg10 mi
3:53 AM74 °FPassing clouds.No wind85%30.13 "Hg10 mi
2:53 AM75 °FPassing clouds.5 mph85%30.12 "Hg10 mi
1:53 AM76 °FPassing clouds.5 mph82%30.12 "Hg10 mi
12:53 AM76 °FPassing clouds.5 mph82%30.13 "Hg10 mi
11:53 PM
Wed, Aug 24
77 °FPassing clouds.6 mph79%30.14 "Hg10 mi
10:53 PM79 °FPassing clouds.5 mph74%30.15 "Hg10 mi
9:53 PM82 °FPassing clouds.3 mph67%30.15 "Hg10 mi
Weather by CustomWeather, © 2016

See weather overviewHow to use our weather pages